Dewpoint
17 18 19 20 19 17 14 12 10 11 14 13 11 11 11 12 13 16 15 14 9 10 8 7 5 11 10 7 9 11 9 10 11 13 11 9 13 12 13 10 12 11 10 8 8 8 9 10 10
15 19 19 18 19 13 12 9 10 10 13 13 11 10 11 13 13 15 15 13 7 8 5 3 7 11 12 10 9 11 12 11 11 10 8 12 11 12 10 8 11 13 12 11 8 8 9 10 13
14 18 18 19 12 12 12 10 9 10 12 13 14 10 11 12 13 14 14 12 8 6 3 2 3 3 4 4 4 4 6 10 11 11 11 7 13 12 11 11 8 12 13 14 9 9 8 9 12
13 16 16 14 10 9 11 10 10 11 11 12 9 10 11 12 12 13 13 12 11 5 3 2 2 3 5 5 5 4 5 8 13 12 11 11 8 10 11 7 7 8 13 10 9 8 8 7 9
12 12 14 10 8 10 9 9 10 12 11 10 9 11 11 11 12 12 13 13 11 6 3 3 3 4 7 8 8 8 7 5 6 11 12 11 11 9 10 7 9 8 8 12 11 9 8 8 7
9 10 13 10 9 9 9 9 7 9 11 10 11 10 10 11 12 11 13 13 12 4 3 3 4 4 8 9 10 10 10 9 5 6 10 12 12 10 11 11 7 11 9 7 8 12 10 9 7
9 10 10 9 9 9 10 9 8 9 10 11 11 10 10 10 11 12 12 12 13 10 3 4 4 5 9 10 10 10 10 9 8 5 7 9 10 12 10 9 10 10 8 8 8 6 6 6 4
3 10 9 8 9 12 7 9 9 9 10 11 11 11 10 10 10 11 12 13 12 7 4 3 4 7 9 11 10 8 9 9 8 6 11 15 12 11 12 11 10 9 10 10 7 8 6 4 4
4 8 8 8 9 10 8 8 8 9 9 10 10 10 9 9 9 11 13 13 13 12 11 10 11 11 12 13 10 11 8 9 8 8 13 15 15 15 14 14 12 10 10 9 10 9 6 7 7
3 8 6 5 6 7 7 8 9 9 9 10 10 10 9 9 9 9 12 13 13 12 13 14 13 13 13 14 12 14 13 13 12 9 14 15 15 15 15 14 14 11 10 10 10 9 9 9 7
3 7 4 4 5 5 7 7 9 9 11 10 10 10 9 9 9 9 9 10 11 11 13 14 14 14 13 14 14 14 15 14 14 14 14 15 15 15 14 15 15 14 12 10 14 14 14 11 14
5 4 4 4 4 6 9 9 10 10 10 10 10 10 10 9 9 9 9 10 10 11 13 13 14 14 14 14 14 14 15 14 13 14 14 14 14 15 15 16 15 15 15 15 14 14 14 14 13
2 4 5 4 6 8 8 10 10 9 10 10 10 10 10 9 9 9 9 10 10 11 11 14 14 13 14 16 14 14 14 14 15 14 15 13 14 14 15 15 15 15 15 15 15 15 15 15 15
0 4 9 9 7 8 10 10 9 9 9 10 9 9 9 9 10 11 10 12 10 11 12 13 12 12 12 15 14 14 14 15 13 13 13 13 13 13 14 13 14 16 16 15 16 16 16 15 15
5 8 11 11 10 9 4 8 10 9 9 10 10 10 12 11 10 10 13 14 13 14 13 13 14 14 13 14 15 14 15 15 10 12 13 12 11 11 13 14 16 16 16 14 15 15 15 15 15
6 6 9 12 10 10 7 11 7 8 9 13 14 14 14 11 9 9 13 14 14 14 14 13 15 15 11 9 11 13 15 10 14 9 11 13 13 12 11 13 14 14 14 15 14 16 16 13 16
6 9 9 9 7 10 10 12 8 7 8 14 13 8 10 12 8 10 10 12 13 14 13 13 15 15 14 14 14 14 14 14 16 16 15 15 13 14 13 15 14 15 14 15 13 13 13 14 15
8 7 7 9 8 10 12 12 9 7 9 12 15 10 11 11 7 10 8 11 10 10 13 14 15 16 14 15 15 15 15 14 15 15 15 16 16 13 15 15 16 15 16 15 15 14 13 15 16
5 5 7 7 5 11 12 11 12 10 12 11 14 12 13 11 8 10 11 12 10 12 14 14 15 15 15 15 15 15 16 15 15 14 14 15 14 14 14 15 14 17 16 17 17 16 14 14 15
5 6 6 5 4 6 11 12 13 12 11 12 13 15 13 13 10 11 14 13 8 12 14 15 15 15 16 15 15 15 15 16 15 16 15 15 15 15 15 14 15 15 14 15 15 15 15 14 15
4 5 3 2 3 3 6 7 14 12 9 8 10 12 13 13 12 13 15 14 12 11 14 16 15 15 15 15 16 17 16 15 15 15 16 16 14 16 16 16 15 15 14 14 16 16 16 15 15
-0 1 0 2 3 7 1 9 9 10 9 8 9 12 13 13 13 13 14 15 14 15 15 16 14 16 13 17 17 16 15 15 16 15 15 11 13 16 16 17 16 15 16 16 15 16 16 17 15
0 -1 2 0 -0 6 7 8 11 12 10 8 5 9 10 11 11 12 12 14 15 16 16 16 16 16 16 15 17 16 16 15 16 8 13 15 15 15 15 16 17 17 15 16 16 15 16 17 16
-1 -1 -2 -2 5 8 7 8 11 14 11 8 7 8 10 10 11 11 12 14 17 17 17 17 17 18 18 17 16 16 15 15 15 15 15 16 16 16 16 16 13 15 16 16 16 16 16 16 16
1 -1 4 8 8 8 4 8 12 10 10 7 8 9 11 11 13 13 13 15 16 16 17 17 17 17 16 17 17 17 17 17 15 16 16 16 16 16 15 16 16 16 16 16 16 16 16 16 16
0 -1 4 8 8 7 5 13 13 8 8 7 10 11 11 12 13 14 14 14 15 17 17 17 16 16 17 17 17 18 16 17 16 16 16 16 16 16 15 16 17 17 16 16 16 16 16 16 17
-1 1 -3 3 2 4 12 12 10 9 11 11 11 11 11 12 13 15 15 16 16 16 17 16 17 17 17 17 17 17 17 17 17 17 16 16 16 15 15 13 11 13 14 15 14 16 15 16 16
-3 -3 -0 2 4 11 14 13 15 11 11 10 11 11 11 15 15 16 16 17 17 17 17 17 17 17 17 16 16 16 15 14 10 10 9 6 2 -1 -3 -4 -4 -4 -4 -1 10 13 13 14 15
-3 -3 -4 -1 1 3 11 11 11 11 11 13 13 13 11 16 15 16 17 17 17 17 17 16 11 8 6 11 13 13 10 5 5 6 4 -0 -1 -1 0 2 3 3 1 2 0 5 8 10 11
-8 -5 -4 4 1 3 7 12 10 11 13 12 11 13 12 15 15 16 16 16 14 10 9 9 8 6 2 -4 2 7 6 6 8 6 5 2 2 3 5 8 8 8 9 9 9 9 8 8 9
Wind_Speed
6 7 6 3 3 4 5 8 7 13 15 23 31 21 15 5 6 9 32 21 24 25 23 21 20 18 18 18 16 16 16 15 15 15 16 16 16 17 17 16 17 17 18 17 19 21 23 23 27
4 4 5 4 1 5 3 8 9 9 24 25 21 30 27 20 31 37 33 21 25 25 24 21 20 18 18 17 16 15 14 14 14 13 14 16 16 16 15 16 17 16 16 15 16 19 21 21 24
4 8 5 3 1 5 6 11 11 10 24 24 9 21 13 26 23 28 28 23 26 24 23 20 18 17 16 15 15 15 14 14 13 11 12 13 15 15 14 15 15 15 14 15 15 17 20 19 20
4 3 7 1 7 7 14 7 15 27 26 28 31 15 24 29 29 29 24 21 22 22 21 19 17 16 15 15 14 14 14 14 12 12 11 11 12 13 13 14 13 14 13 12 12 14 18 19 19
6 5 2 4 7 10 11 12 23 19 23 27 30 22 26 28 29 30 28 24 19 20 19 18 16 15 14 14 13 12 12 12 12 13 12 10 11 11 11 12 12 12 12 12 11 11 13 16 19
5 1 2 4 8 14 10 16 17 24 29 27 30 24 22 27 34 27 36 28 20 21 19 16 15 14 12 12 11 11 10 10 10 11 12 12 10 9 9 10 10 10 9 10 10 10 10 12 14
16 3 4 9 6 10 13 20 16 22 23 20 25 17 29 24 28 31 33 25 21 16 19 14 13 14 12 11 9 9 8 9 9 9 11 12 11 10 8 7 7 8 8 7 7 7 8 9 11
8 5 4 6 10 4 10 15 20 20 16 26 34 12 21 24 23 29 21 21 15 17 11 12 12 10 10 11 9 9 7 8 8 8 10 10 9 10 8 7 5 5 5 5 5 5 6 8 10
20 1 4 12 11 6 12 11 18 17 23 21 9 30 32 25 24 25 28 25 18 11 10 14 13 9 9 10 12 11 9 8 6 6 7 7 7 7 7 5 4 2 3 4 4 4 4 6 7
5 4 8 10 10 7 7 11 17 18 24 25 28 29 28 25 23 28 29 26 18 10 9 11 8 10 8 6 8 9 7 6 4 5 8 8 4 3 3 3 1 3 3 4 4 3 3 4 7
10 8 8 16 19 24 18 19 15 22 17 28 30 30 27 25 22 24 22 14 10 9 15 18 8 7 7 3 5 5 4 7 7 5 8 9 5 4 4 1 4 4 5 6 5 3 2 6 7
11 14 17 11 18 19 18 18 23 23 21 27 27 27 27 23 21 20 24 20 18 17 17 18 10 12 6 3 3 4 5 4 5 6 7 7 8 6 7 7 6 3 2 3 3 3 4 6 7
10 9 25 12 23 23 21 15 13 20 21 23 24 25 26 23 21 18 21 20 21 24 19 20 17 12 10 6 7 6 2 4 2 3 5 5 10 8 9 8 7 4 1 3 4 6 7 8 11
15 19 23 27 17 22 15 9 14 18 20 21 25 23 22 23 20 11 13 7 23 24 18 25 18 11 13 12 9 8 4 4 3 3 9 7 7 3 5 7 9 6 3 5 7 9 12 13 12
25 20 15 25 21 8 9 5 2 7 18 19 21 26 18 16 18 9 10 8 17 20 19 19 13 10 10 21 14 10 6 7 5 5 8 9 9 5 5 7 7 7 3 2 2 2 1 3 5
6 4 7 10 10 3 7 4 7 11 2 25 27 15 9 11 15 20 4 7 20 22 18 16 14 11 9 13 17 16 5 3 5 5 7 7 5 4 3 4 3 4 2 3 3 2 3 3 2
9 3 5 6 16 4 2 7 17 16 6 11 40 30 11 17 7 30 14 20 12 11 15 13 19 20 8 8 11 9 6 4 5 3 3 2 4 3 1 3 3 1 4 1 4 5 4 3 2
5 8 10 8 5 10 7 10 11 13 15 31 26 39 25 20 14 31 27 14 9 17 15 20 11 21 9 8 9 7 5 5 7 6 6 7 5 5 3 0 1 1 3 5 7 6 4 3 4
5 18 11 13 18 13 17 9 10 33 32 26 34 34 35 32 20 27 27 13 4 11 18 18 14 20 13 11 14 13 11 8 8 7 5 5 3 5 4 1 3 5 7 5 11 8 4 6 6
8 9 11 13 17 9 15 12 20 32 27 31 33 28 38 27 31 27 31 26 20 12 18 21 22 18 14 13 10 10 5 9 8 9 8 9 8 3 4 4 5 7 6 9 7 10 8 9 8
14 12 8 9 7 5 8 2 16 11 18 11 7 26 29 30 28 33 34 23 16 30 22 24 24 18 15 13 11 11 11 9 9 7 8 9 16 7 5 6 6 8 10 12 8 13 12 9 10
3 11 5 7 2 5 2 3 4 5 7 2 5 21 24 21 19 18 34 30 22 27 27 23 15 14 16 18 13 10 6 9 8 9 10 7 2 5 7 9 8 7 10 12 12 13 13 14 12
5 6 6 6 3 8 4 4 6 8 5 5 8 4 11 17 14 21 21 22 28 26 24 24 15 11 11 15 13 8 9 5 3 10 4 9 9 7 7 8 8 11 12 11 15 13 17 19 20
10 2 1 3 5 3 8 6 4 5 8 7 7 11 7 17 17 15 21 28 29 28 25 18 15 16 14 13 12 11 10 3 3 2 4 3 2 3 4 5 7 7 10 12 14 15 15 17 18
11 3 3 5 4 5 6 7 4 24 24 9 5 7 22 23 24 25 24 26 27 23 20 15 9 11 13 11 7 5 7 7 5 4 5 3 6 8 7 7 8 5 7 8 9 11 12 12 13
5 7 5 5 4 4 6 4 6 25 23 20 8 18 18 14 17 19 18 20 22 20 18 14 8 10 10 7 7 8 7 7 7 9 8 4 5 10 14 12 10 11 11 11 11 10 10 10 12
8 5 9 6 5 5 4 4 4 8 12 13 19 22 14 22 18 24 24 21 18 20 19 13 10 9 7 4 4 4 5 6 5 8 12 14 13 14 14 16 14 14 15 13 14 14 12 12 12
9 7 4 3 3 5 2 4 5 3 11 12 11 20 21 24 23 18 18 17 16 17 16 13 10 8 6 5 6 6 6 4 3 6 8 11 13 13 14 14 13 13 12 13 16 17 16 15 15
3 5 5 2 4 5 4 5 2 2 8 5 12 16 22 24 20 17 16 21 20 15 12 10 10 10 5 3 3 5 6 5 5 9 10 10 9 9 9 10 10 11 11 11 12 13 15 17 16
9 10 10 5 9 2 6 2 3 3 4 14 6 13 17 24 22 26 25 21 16 16 15 14 10 6 4 4 2 2 3 1 6 10 10 10 10 9 8 9 9 9 9 9 9 9 11 13 13
Wind_Direction
118 64 43 12 35 99 128 98 134 76 65 75 64 74 61 132 113 128 149 159 147 140 134 129 121 114 109 107 104 101 98 94 93 95 90 91 95 97 99 96 99 99 102 105 105 105 105 106 106
218 49 357 285 201 81 72 84 88 103 115 90 84 80 75 72 109 123 134 151 144 139 134 131 126 118 114 111 107 104 99 96 96 96 97 93 98 102 99 100 107 109 110 109 110 108 110 116 111
39 146 243 182 289 94 98 89 71 71 112 95 89 95 92 118 116 130 139 141 142 137 135 130 126 118 115 110 107 102 99 95 91 93 99 104 101 101 102 104 106 114 114 118 116 115 115 119 111
51 185 253 172 93 72 72 78 91 86 98 103 107 95 117 129 126 133 137 134 137 137 136 130 127 121 116 108 102 99 96 97 92 92 100 106 112 106 105 102 110 115 115 117 117 114 118 127 131
313 253 338 61 64 86 67 95 112 99 93 99 101 107 112 123 133 141 140 145 133 139 139 133 131 126 119 111 104 96 93 90 90 92 97 107 108 113 106 105 108 111 121 117 120 124 126 127 129
286 272 357 92 83 97 102 84 116 108 109 112 108 116 121 131 145 144 148 160 154 140 144 139 137 132 121 112 106 100 93 90 89 92 96 99 106 109 116 113 115 117 121 129 130 135 133 135 138
229 66 264 98 88 61 94 95 79 111 128 134 125 118 134 141 153 150 155 162 159 156 146 147 138 132 121 110 101 96 94 90 90 96 102 100 106 108 113 121 126 128 132 130 136 139 148 139 137
148 108 301 100 79 35 34 113 113 116 122 133 130 135 146 155 150 150 152 155 150 130 145 147 134 134 129 111 94 90 93 94 93 98 114 99 104 104 104 98 113 131 142 140 154 154 160 151 147
113 14 80 85 93 159 100 112 115 113 132 145 133 140 146 150 143 131 137 143 140 124 129 143 128 108 111 96 88 95 97 88 86 112 129 107 119 104 116 85 93 136 143 146 146 155 178 185 181
92 90 80 103 101 96 115 134 131 112 98 113 125 137 147 155 153 144 135 145 144 135 186 160 134 111 110 118 101 90 90 60 50 115 133 124 138 136 125 103 31 148 150 154 130 149 171 186 204
90 90 80 81 86 75 52 41 109 128 119 124 132 142 157 159 167 152 167 166 165 163 182 199 158 162 127 106 99 78 106 72 82 96 164 145 167 162 162 176 105 120 145 167 181 131 137 157 159
107 133 117 98 100 90 64 45 76 86 122 141 145 151 158 160 177 165 176 177 172 168 160 172 182 162 119 128 157 86 142 92 90 98 117 179 195 194 191 145 128 136 182 199 199 195 195 206 229
103 117 94 75 104 95 88 60 90 102 125 138 146 158 163 173 181 182 189 185 177 182 175 172 170 179 152 162 174 179 146 78 70 173 162 110 164 171 183 171 170 156 289 275 254 252 262 251 241
138 86 67 35 58 65 72 58 110 123 134 149 156 164 178 178 175 138 155 157 184 184 169 183 191 203 196 179 177 179 179 154 133 89 119 126 128 136 191 168 173 175 178 237 254 260 259 256 255
94 94 58 73 297 7 86 11 104 131 151 167 151 158 155 142 155 196 131 113 154 174 160 178 194 201 217 192 191 199 223 228 130 126 120 117 106 120 132 159 158 139 162 282 238 265 326 248 226
94 31 118 197 182 254 93 258 275 237 237 99 92 40 354 123 202 191 289 161 153 162 184 194 199 214 201 180 195 199 205 148 162 104 139 99 97 83 126 132 143 122 120 20 302 299 320 7 249
37 46 14 299 180 117 70 251 252 208 253 72 147 201 212 179 135 155 187 201 194 189 186 196 191 203 192 158 183 177 198 208 226 257 202 213 131 121 130 89 136 64 220 221 17 8 5 15 345
192 289 239 225 285 155 184 263 292 265 185 200 173 179 213 199 157 174 182 184 229 238 192 184 191 187 182 199 175 211 231 242 269 254 243 255 221 186 182 274 295 326 253 258 322 322 302 358 314
188 220 228 222 250 156 201 212 48 316 306 207 183 182 183 193 167 171 181 129 163 175 182 172 162 159 176 194 205 203 216 259 256 249 243 277 237 228 208 248 279 270 260 261 289 301 270 272 287
196 222 221 224 226 162 186 186 180 207 251 245 181 173 180 180 166 161 165 155 45 190 191 175 178 188 199 213 179 211 213 257 267 260 282 288 281 284 314 274 311 295 289 242 243 281 285 283 262
232 202 226 226 123 62 127 68 183 219 247 39 167 182 176 178 173 164 173 175 131 159 174 184 182 192 204 162 207 222 219 247 248 261 253 273 261 243 246 294 264 287 276 289 279 267 272 286 253
212 179 280 277 153 201 173 210 187 306 333 36 46 164 168 183 169 161 196 200 177 158 165 177 167 178 178 187 194 206 216 239 276 289 314 292 17 220 222 250 266 267 284 277 271 265 268 268 268
179 161 202 262 10 88 316 86 288 339 323 249 257 327 145 144 140 146 159 177 172 154 158 175 174 172 158 192 207 213 218 242 344 359 334 303 306 308 241 266 279 282 285 270 272 259 260 268 274
282 265 192 320 92 52 235 105 321 305 235 277 269 242 164 145 139 143 132 155 156 160 163 166 174 180 189 191 203 224 241 227 271 318 276 260 296 329 22 231 274 321 312 285 275 275 276 267 273
284 323 344 6 359 220 144 100 239 234 252 235 245 233 115 127 132 134 129 132 148 155 164 171 169 190 196 208 217 231 249 258 244 283 281 260 245 270 297 281 278 281 270 276 271 271 272 275 276
239 182 155 188 214 247 74 46 170 215 219 204 248 120 111 124 127 130 144 142 148 152 156 155 139 125 126 152 191 224 235 250 274 273 267 255 276 295 301 295 278 272 271 272 280 278 278 270 275
279 308 207 165 273 53 136 95 33 99 142 149 129 127 141 136 132 138 148 154 148 156 161 159 148 146 159 195 232 280 266 270 285 293 288 297 294 289 288 290 283 273 266 266 273 274 273 272 282
174 241 356 320 232 148 146 158 206 112 145 148 153 155 153 142 146 141 139 134 139 148 151 157 149 155 169 208 214 237 260 290 301 274 288 292 293 294 292 293 291 288 285 273 264 267 272 275 276
218 256 288 247 158 166 163 243 220 209 91 69 12 139 149 145 146 155 152 142 141 149 148 145 141 152 150 165 217 246 277 302 290 304 309 309 313 317 320 322 324 319 314 303 286 276 277 277 279
189 191 221 142 274 183 139 150 243 54 166 72 44 328 164 149 157 152 158 155 150 141 133 131 134 134 108 102 126 341 337 257 285 306 321 323 331 342 342 345 349 353 358 350 327 305 293 286 285
Height
1498 1497 1495 1496 1506 1505 1511 1501 1491 1495 1500 1498 1495 1498 1506 1502 1509 1535 1531 1534 1538 1541 1544 1546 1547 1549 1549 1550 1551 1552 1552 1553 1553 1554 1555 1555 1555 1556 1557 1557 1557 1558 1559 1560 1561 1563 1565 1564 1564
1496 1495 1497 1496 1507 1518 1512 1491 1495 1491 1497 1499 1499 1501 1507 1513 1511 1523 1532 1536 1540 1542 1544 1547 1549 1550 1551 1552 1553 1554 1554 1555 1555 1556 1556 1556 1557 1558 1559 1559 1560 1561 1562 1564 1565 1566 1566 1566 1568
1495 1496 1499 1498 1499 1511 1509 1492 1492 1495 1496 1497 1501 1507 1512 1522 1525 1526 1533 1537 1540 1543 1546 1548 1551 1552 1553 1554 1555 1555 1556 1556 1557 1557 1557 1558 1559 1559 1560 1561 1562 1563 1564 1566 1568 1569 1569 1567 1568
1491 1497 1498 1500 1501 1493 1494 1492 1493 1496 1502 1504 1506 1511 1520 1522 1527 1530 1535 1538 1540 1545 1547 1550 1552 1553 1554 1555 1556 1557 1557 1557 1558 1558 1559 1559 1560 1561 1561 1562 1563 1563 1564 1566 1567 1568 1569 1571 1574
1492 1492 1497 1500 1495 1491 1488 1492 1494 1499 1504 1507 1509 1519 1524 1526 1529 1533 1535 1537 1541 1546 1549 1550 1552 1553 1554 1555 1556 1557 1557 1558 1558 1560 1560 1560 1561 1561 1562 1563 1563 1564 1564 1566 1568 1570 1571 1572 1574
1493 1490 1507 1512 1498 1490 1491 1493 1495 1498 1505 1510 1512 1520 1526 1529 1532 1534 1537 1539 1543 1545 1549 1551 1552 1553 1554 1555 1555 1556 1557 1559 1559 1560 1561 1561 1562 1562 1563 1563 1564 1565 1566 1566 1568 1570 1571 1573 1576
1492 1497 1503 1499 1499 1496 1495 1494 1497 1500 1507 1511 1514 1521 1529 1532 1535 1535 1537 1540 1545 1547 1549 1552 1553 1554 1555 1555 1556 1557 1558 1559 1560 1561 1561 1561 1562 1563 1563 1564 1565 1566 1567 1568 1569 1570 1572 1573 1575
1487 1493 1496 1494 1502 1508 1496 1496 1499 1502 1509 1512 1515 1524 1528 1532 1536 1538 1540 1542 1546 1549 1550 1552 1554 1556 1557 1556 1557 1557 1558 1559 1560 1561 1562 1562 1562 1563 1564 1564 1565 1566 1567 1568 1569 1571 1572 1573 1576
1481 1500 1505 1498 1500 1500 1496 1497 1500 1503 1507 1513 1514 1521 1528 1532 1538 1539 1542 1545 1548 1550 1552 1553 1554 1555 1557 1558 1557 1557 1558 1559 1561 1561 1562 1563 1564 1564 1564 1564 1565 1566 1568 1569 1569 1570 1572 1574 1576
1482 1500 1497 1488 1491 1495 1495 1496 1500 1503 1507 1514 1519 1525 1531 1534 1538 1541 1544 1548 1549 1550 1552 1554 1555 1556 1557 1559 1559 1558 1559 1559 1560 1562 1563 1563 1564 1565 1566 1565 1566 1566 1567 1569 1569 1570 1571 1573 1574
1482 1495 1490 1491 1492 1495 1498 1499 1499 1503 1511 1515 1519 1523 1530 1535 1538 1540 1544 1548 1551 1553 1553 1553 1554 1556 1558 1559 1560 1559 1559 1560 1560 1561 1562 1562 1563 1563 1564 1565 1566 1566 1567 1568 1568 1569 1570 1571 1571
1486 1485 1487 1493 1494 1496 1502 1504 1505 1507 1512 1514 1519 1524 1530 1535 1538 1540 1541 1544 1546 1551 1552 1553 1554 1557 1559 1559 1559 1558 1558 1559 1558 1559 1560 1561 1561 1561 1563 1564 1564 1565 1566 1567 1567 1567 1568 1570 1570
1484 1487 1493 1497 1498 1501 1504 1508 1511 1513 1516 1518 1522 1527 1528 1532 1536 1538 1540 1541 1543 1547 1551 1552 1554 1556 1559 1560 1559 1560 1558 1557 1558 1557 1557 1557 1559 1560 1561 1562 1562 1564 1565 1567 1567 1567 1567 1567 1569
1483 1489 1502 1503 1505 1508 1511 1509 1509 1515 1517 1522 1525 1532 1531 1527 1530 1533 1537 1541 1544 1544 1548 1551 1553 1556 1558 1560 1559 1559 1559 1559 1560 1558 1557 1558 1558 1560 1562 1562 1562 1563 1564 1566 1567 1567 1566 1567 1568
1484 1502 1505 1506 1513 1516 1509 1512 1511 1514 1517 1523 1531 1528 1530 1526 1528 1532 1534 1538 1541 1546 1544 1549 1552 1554 1556 1559 1559 1558 1560 1561 1561 1559 1557 1558 1559 1560 1563 1564 1564 1564 1564 1565 1566 1566 1565 1565 1565
1490 1494 1515 1518 1517 1519 1508 1525 1512 1512 1520 1532 1534 1543 1538 1521 1527 1522 1534 1540 1539 1542 1543 1547 1551 1552 1555 1556 1558 1560 1561 1561 1559 1558 1558 1558 1559 1560 1562 1564 1564 1564 1565 1566 1565 1565 1566 1565 1564
1501 1524 1520 1516 1506 1513 1514 1523 1502 1510 1523 1539 1520 1526 1535 1536 1523 1519 1529 1537 1543 1544 1543 1544 1547 1550 1553 1556 1557 1559 1560 1560 1557 1557 1555 1555 1558 1559 1561 1563 1564 1564 1565 1566 1566 1565 1565 1564 1563
1529 1523 1508 1515 1507 1510 1518 1515 1507 1511 1512 1522 1530 1516 1520 1533 1523 1526 1527 1534 1536 1543 1542 1543 1544 1534 1550 1556 1559 1560 1560 1558 1556 1554 1552 1555 1557 1558 1559 1560 1560 1562 1563 1565 1564 1564 1563 1562 1561
1492 1500 1513 1507 1492 1509 1513 1511 1529 1520 1524 1513 1521 1511 1513 1521 1525 1526 1530 1540 1541 1544 1544 1542 1542 1548 1552 1558 1560 1560 1558 1556 1555 1553 1554 1557 1558 1559 1559 1559 1557 1557 1558 1559 1562 1563 1563 1560 1561
1491 1503 1509 1494 1483 1500 1510 1519 1519 1510 1508 1507 1506 1507 1511 1517 1525 1524 1530 1539 1543 1537 1541 1543 1545 1549 1553 1557 1560 1559 1557 1556 1554 1557 1560 1560 1560 1562 1562 1561 1557 1554 1554 1556 1558 1561 1560 1558 1558
1489 1499 1493 1491 1485 1489 1503 1515 1517 1508 1503 1492 1501 1497 1504 1509 1514 1524 1527 1526 1536 1530 1536 1544 1543 1550 1553 1556 1557 1557 1557 1555 1555 1557 1559 1558 1550 1558 1559 1562 1560 1556 1556 1557 1555 1557 1558 1557 1556
1497 1482 1480 1482 1493 1521 1494 1536 1504 1507 1499 1489 1495 1500 1501 1505 1512 1516 1521 1519 1526 1529 1538 1541 1542 1549 1552 1554 1555 1555 1555 1555 1556 1556 1558 1555 1547 1552 1554 1559 1558 1556 1556 1557 1557 1555 1554 1553 1555
1482 1470 1480 1480 1494 1504 1508 1521 1525 1515 1508 1492 1489 1497 1499 1505 1512 1515 1517 1515 1520 1528 1535 1540 1544 1548 1551 1552 1552 1551 1552 1555 1551 1550 1551 1557 1553 1554 1556 1555 1551 1551 1553 1554 1554 1551 1550 1550 1552
1466 1472 1475 1479 1500 1536 1506 1520 1531 1526 1511 1493 1490 1498 1499 1505 1510 1515 1520 1520 1528 1531 1535 1539 1543 1546 1547 1549 1549 1549 1550 1554 1554 1551 1550 1553 1554 1553 1550 1548 1550 1548 1550 1549 1549 1548 1549 1549 1548
1470 1484 1527 1537 1541 1534 1497 1524 1526 1509 1500 1497 1497 1501 1502 1506 1511 1515 1521 1525 1529 1532 1535 1538 1541 1544 1544 1544 1546 1547 1547 1549 1552 1549 1548 1548 1550 1551 1547 1547 1545 1546 1548 1548 1547 1545 1547 1545 1544
1474 1484 1526 1544 1546 1524 1493 1522 1511 1495 1496 1501 1503 1507 1509 1511 1514 1518 1522 1525 1527 1531 1534 1537 1538 1540 1541 1543 1544 1544 1544 1546 1547 1548 1545 1544 1543 1542 1543 1543 1543 1544 1545 1546 1544 1543 1543 1541 1539
1476 1491 1473 1503 1499 1523 1509 1501 1492 1492 1500 1502 1503 1504 1511 1514 1518 1518 1521 1522 1526 1529 1531 1533 1535 1537 1539 1542 1543 1543 1543 1544 1544 1543 1541 1540 1539 1539 1538 1539 1539 1540 1541 1540 1539 1538 1538 1536 1535
1465 1465 1497 1494 1528 1532 1519 1518 1523 1505 1500 1500 1506 1508 1512 1512 1517 1523 1524 1525 1527 1529 1530 1533 1535 1536 1538 1540 1541 1541 1541 1541 1540 1540 1539 1538 1538 1537 1537 1536 1536 1536 1535 1534 1533 1532 1531 1530 1529
1470 1479 1477 1484 1498 1524 1539 1530 1506 1506 1508 1506 1508 1507 1514 1515 1516 1521 1525 1525 1526 1529 1528 1532 1533 1534 1536 1538 1539 1539 1539 1539 1538 1537 1536 1536 1536 1535 1534 1533 1532 1531 1529 1528 1527 1526 1525 1524 1523
1452 1467 1472 1506 1502 1494 1506 1524 1501 1500 1501 1492 1497 1512 1513 1517 1516 1519 1523 1523 1525 1528 1530 1531 1532 1533 1534 1535 1535 1536 1537 1537 1536 1535 1534 1534 1534 1533 1532 1531 1530 1529 1528 1526 1524 1522 1521 1520 1520